Wind_Speed
1 2 2 3 4 2 2 5 7 4 3 3 3 5 4 5 6 7 7 7 7 7 5 4 5 4 3 2 4 4 3 4 4 4 5 5 4 5 6 6 8 8 7 7 7 7 7 7 7 7 7 7 7 7 7 8 8 8 9 8 8 8 8 8 7 7 7 8 8 9 9 10 10 11 11 12 13 13 13 13 14 14 15 15 14 15
3 3 4 3 2 4 4 5 6 5 5 4 3 5 7 7 7 6 6 5 5 6 4 4 4 6 5 1 2 3 4 4 3 3 5 6 6 7 8 8 9 9 8 8 8 7 6 7 7 7 7 7 7 7 7 8 8 9 9 9 9 9 9 9 8 8 8 9 10 9 9 10 11 12 12 12 12 13 13 13 13 14 14 14 14 14
5 6 6 4 3 4 4 6 7 7 7 7 6 8 9 9 8 7 6 5 4 4 4 4 5 3 4 2 0 3 4 4 6 6 7 8 8 8 9 9 10 10 9 8 7 7 7 7 6 6 6 6 7 7 8 9 9 9 9 10 10 9 9 9 9 9 9 10 10 10 10 11 12 12 12 12 12 12 13 13 13 13 14 14 15 16
6 6 5 4 4 3 3 6 7 7 8 9 9 8 8 8 8 9 8 8 5 3 2 4 5 2 2 4 2 3 4 5 9 9 9 10 10 9 9 10 10 9 9 8 7 6 6 6 6 6 6 7 8 9 10 10 10 10 10 10 10 10 10 10 10 10 10 10 10 11 11 11 11 11 11 12 12 12 13 13 13 14 15 16 17 18
7 5 4 4 4 4 4 5 6 8 8 9 9 8 8 9 8 9 9 9 7 3 1 3 4 5 3 2 4 3 3 6 9 10 10 10 10 10 9 9 8 9 8 6 6 5 5 5 6 7 7 8 10 10 11 11 11 11 11 11 11 11 11 10 10 11 10 10 10 10 10 9 10 10 11 12 12 12 13 13 15 16 17 18 19 19
4 4 3 3 4 6 6 6 7 9 9 9 9 9 10 9 8 9 8 6 5 3 1 3 3 5 6 2 3 5 4 6 8 10 10 9 10 10 9 8 7 8 7 5 5 4 4 6 7 8 9 10 10 11 11 11 11 11 11 11 11 11 11 11 11 11 11 10 10 10 10 10 10 10 11 11 12 12 13 15 16 17 18 19 19 19
1 2 3 2 3 6 7 8 8 10 11 10 10 10 12 10 8 9 7 2 1 1 1 2 3 5 5 2 3 5 6 7 8 9 11 10 9 10 10 8 7 7 6 6 5 4 6 8 9 9 9 10 10 10 11 11 10 10 10 10 10 11 11 11 11 11 11 11 11 11 11 11 11 11 12 12 13 14 15 16 17 17 17 18 18 18
2 0 1 1 1 4 6 8 9 11 12 12 11 12 13 11 8 10 7 2 1 2 3 2 3 4 3 1 4 6 6 8 9 9 11 10 8 9 10 10 9 8 8 8 7 7 9 10 10 9 9 9 9 9 9 10 10 10 9 10 10 10 10 10 10 10 11 11 11 11 11 12 12 12 12 13 14 15 16 16 16 17 17 17 18 19
4 3 3 2 0 3 5 7 9 11 12 11 11 12 13 11 10 10 8 5 3 3 3 4 3 3 2 2 4 6 6 7 10 10 10 11 9 8 10 11 11 11 11 10 10 9 9 10 9 9 8 8 8 8 9 9 9 9 9 9 10 10 10 10 10 10 11 11 11 11 11 11 12 12 13 14 14 14 15 15 16 16 17 18 19 19
6 4 4 3 1 3 5 7 9 9 10 10 10 11 12 11 10 11 9 6 4 4 5 4 3 3 3 2 3 4 6 7 9 10 10 10 10 9 9 11 12 12 12 11 10 9 9 9 8 8 7 7 7 8 8 9 9 9 9 9 10 10 10 10 10 10 10 11 11 11 11 12 13 13 14 14 14 14 15 15 16 17 18 18 19 20
5 4 4 3 2 3 5 8 8 6 8 10 10 11 12 11 11 10 9 7 5 4 7 6 4 4 4 3 3 4 6 8 10 11 10 10 11 10 9 11 12 12 11 10 9 8 8 8 7 6 6 6 7 7 7 8 8 8 8 9 10 10 10 10 11 11 10 11 11 11 12 12 13 13 14 15 15 16 16 17 17 18 18 19 19 20
8 6 5 4 4 5 6 7 7 6 7 11 12 12 13 12 12 10 8 9 7 5 8 8 7 6 6 6 6 6 8 9 9 10 11 11 11 10 9 10 11 10 9 8 7 7 7 6 5 5 5 5 6 6 7 7 7 7 8 9 9 9 10 10 11 11 11 11 11 11 12 13 14 14 15 16 17 17 18 18 18 18 19 20 20 21
10 9 8 7 6 6 7 7 7 7 7 11 13 13 13 12 12 11 9 10 9 8 10 9 8 7 7 7 7 7 9 9 9 10 11 11 11 11 9 9 10 8 7 7 5 5 5 4 3 3 4 4 5 5 6 6 6 6 7 8 8 8 9 9 10 11 11 11 12 12 13 14 14 15 16 16 17 17 18 18 19 19 20 20 21 22
9 10 9 8 7 8 9 8 8 8 8 11 12 11 10 10 12 11 9 9 10 10 11 9 8 8 7 6 7 8 9 9 10 11 10 11 12 11 9 8 8 7 6 5 4 4 3 2 2 3 3 4 5 5 6 6 6 6 6 7 8 8 8 8 9 10 11 12 12 13 14 14 15 15 16 16 16 17 17 17 18 19 20 20 21 22
11 10 8 7 9 11 9 8 9 10 9 10 11 9 8 8 10 11 10 11 12 12 12 10 8 8 8 8 9 10 9 9 11 12 11 12 12 11 8 6 6 6 4 4 4 3 2 2 2 3 4 4 5 6 6 6 7 7 7 7 8 8 8 9 10 10 11 12 13 14 14 15 15 15 15 16 16 16 17 17 18 18 19 20 20 21
12 11 8 7 12 13 8 7 9 8 9 10 10 10 10 9 10 12 13 13 13 12 11 9 7 8 9 9 10 11 11 11 12 11 11 11 11 10 8 5 4 5 4 3 4 3 2 2 3 4 5 5 6 6 7 6 7 8 8 8 8 8 9 9 11 12 12 12 13 14 14 15 15 15 15 15 15 15 16 17 18 19 21 22 23 23
12 14 14 11 12 12 8 9 8 5 8 9 9 11 13 13 14 15 14 13 12 12 10 8 9 9 9 9 10 11 12 13 12 11 11 11 10 9 8 6 4 5 4 4 3 2 2 3 4 4 5 7 7 7 7 8 8 9 9 9 9 9 9 10 11 12 13 13 13 14 14 14 15 15 15 15 15 16 16 18 19 20 22 23 24 25
12 16 19 16 14 12 11 13 12 8 6 6 9 13 14 15 16 14 13 15 14 12 10 8 9 9 8 9 10 11 12 12 11 10 10 10 9 9 8 6 5 5 5 5 3 2 3 5 5 6 6 8 8 8 8 9 10 10 10 9 9 10 11 11 12 13 14 14 13 13 13 14 14 14 14 14 14 16 17 20 22 24 25 25 26 27
13 18 21 20 17 15 14 16 15 11 7 5 9 16 15 12 12 10 11 13 12 12 10 8 9 8 6 6 8 8 8 7 8 8 8 9 9 8 7 6 5 4 4 5 4 4 5 6 6 6 7 8 9 8 8 8 9 10 10 10 10 10 11 13 14 14 15 15 14 13 13 13 13 13 13 14 14 16 18 21 25 27 28 28 28 29
16 21 23 22 18 16 17 15 13 11 8 6 12 18 16 14 13 10 10 10 10 11 9 9 10 7 4 4 5 6 7 4 3 5 6 7 7 6 6 6 5 5 5 6 7 8 7 6 6 6 7 7 9 9 8 8 8 9 10 11 12 12 13 14 15 15 15 16 15 14 14 14 14 14 14 15 16 18 21 24 27 28 28 28 28 29
20 23 25 25 19 16 18 15 12 11 8 8 12 15 14 13 14 13 11 10 9 9 9 10 9 6 3 3 2 4 8 5 2 3 5 5 6 5 6 6 5 5 6 7 8 8 7 6 6 7 7 7 7 8 8 7 7 9 10 11 12 13 14 14 15 16 16 16 16 16 15 15 15 15 16 17 19 21 24 27 29 30 30 30 30 30
23 24 25 26 20 15 16 15 13 12 10 10 11 12 11 10 12 14 12 10 9 8 8 10 9 6 3 2 0 2 6 5 2 2 3 4 5 4 5 6 5 5 5 5 6 7 8 8 7 8 8 7 7 8 8 7 7 9 11 12 12 12 14 15 15 16 17 18 18 18 18 17 17 17 18 20 21 24 27 29 31 32 32 32 33 34
27 25 25 25 21 17 14 15 16 14 12 12 12 12 12 10 11 13 12 11 10 8 9 10 10 7 4 2 3 3 3 4 3 2 2 3 3 3 4 4 4 3 2 3 5 6 7 8 7 7 8 8 8 9 9 9 9 9 10 12 12 12 13 15 16 16 16 17 17 18 18 19 19 20 20 21 23 25 28 30 31 32 32 33 35 36
30 27 25 23 21 20 18 15 17 15 15 16 14 14 15 12 11 12 12 13 12 10 10 11 10 7 5 4 6 5 1 2 3 2 1 1 2 1 1 1 1 1 1 2 5 6 6 6 6 7 8 8 9 10 11 10 10 10 10 12 13 14 14 14 15 16 17 17 17 18 19 19 20 21 22 24 25 27 28 30 31 32 33 35 36 38
32 30 26 22 20 21 22 20 19 18 19 20 18 16 17 16 15 16 16 15 14 13 13 13 11 8 6 6 6 3 2 4 4 1 1 0 1 2 3 2 1 1 1 2 5 7 7 6 7 7 8 9 10 11 12 13 12 12 12 13 14 15 15 15 16 17 19 20 20 20 20 20 21 22 23 25 26 28 29 31 32 33 35 37 38 39
34 34 31 25 24 24 23 20 20 18 18 20 20 19 20 19 18 19 19 17 15 14 13 13 12 10 8 6 5 4 3 5 5 3 2 2 2 3 4 3 3 3 2 3 6 9 9 8 8 8 8 9 10 11 13 14 14 13 13 14 15 15 15 15 16 17 18 19 20 21 21 21 21 22 24 25 27 29 31 32 34 35 37 38 39 40
34 35 34 30 25 24 21 18 18 18 17 18 19 20 21 20 18 18 18 16 15 14 13 13 14 12 10 8 8 8 5 5 7 5 3 3 4 4 4 4 4 4 4 5 8 11 11 9 9 9 10 10 11 11 13 14 14 14 14 15 15 15 15 15 15 16 16 17 19 20 20 21 22 23 24 26 27 29 32 33 35 36 37 38 40 41
33 35 34 32 29 25 21 18 19 20 20 19 17 18 19 18 17 19 19 15 14 14 12 13 15 13 13 13 13 12 8 7 8 6 4 5 5 5 5 6 6 6 7 8 10 12 11 11 11 12 13 13 13 14 15 15 16 16 16 16 16 16 16 16 16 16 16 17 18 18 19 21 22 24 25 26 28 30 32 34 35 36 37 38 40 42
31 34 34 33 31 27 22 19 20 22 22 21 18 18 20 17 14 15 13 9 10 11 11 14 16 16 16 16 16 15 11 10 10 7 6 7 6 5 6 7 8 8 8 9 10 12 13 13 13 15 15 15 16 16 17 17 18 18 18 17 17 17 17 17 17 17 17 17 18 19 20 21 23 24 26 27 29 30 31 33 34 36 37 39 41 44
29 32 34 34 30 25 22 21 22 24 21 20 18 17 18 17 14 12 9 6 10 13 14 16 17 17 17 17 17 17 14 13 11 7 5 6 5 5 6 6 8 9 9 10 12 13 15 16 16 16 17 18 18 18 18 19 19 19 19 19 19 18 18 19 19 19 19 19 19 20 20 21 23 26 27 28 29 30 32 33 35 36 39 41 44 47
31 29 32 34 30 26 25 26 28 28 25 23 21 17 16 16 15 14 12 11 15 18 18 17 16 15 16 17 18 18 17 16 14 9 6 6 5 5 5 6 10 12 12 12 13 15 16 17 18 18 19 19 19 19 20 20 19 19 19 19 19 19 20 21 22 22 22 22 22 23 23 24 26 28 29 30 31 32 34 35 37 39 41 44 47 50
37 33 32 34 32 30 30 31 32 32 30 27 24 22 20 18 14 12 13 15 19 20 18 18 17 15 15 17 18 18 19 18 15 12 9 8 7 5 5 7 11 14 15 14 14 15 16 18 19 20 20 20 20 21 21 21 21 20 19 19 20 20 21 22 23 23 23 23 23 24 25 26 29 31 32 32 34 35 36 37 39 42 45 47 49 51
40 38 35 35 34 33 32 34 33 32 32 30 26 25 24 20 16 15 15 17 20 22 21 20 19 17 17 19 19 19 19 17 16 15 12 10 8 6 4 6 9 13 15 16 15 14 15 17 19 20 20 20 21 22 22 22 22 22 21 21 21 22 23 23 23 23 23 22 22 23 26 29 31 32 33 34 35 35 37 39 43 45 48 49 50 51
42 40 39 37 36 35 34 34 33 32 34 34 29 25 23 20 18 19 18 19 20 21 21 20 19 20 21 22 21 20 20 19 18 16 13 11 9 5 3 4 8 12 15 17 17 14 13 16 18 18 19 20 21 22 23 23 23 23 23 23 23 24 25 25 25 24 24 24 25 27 31 33 33 33 33 34 34 36 39 43 46 48 49 49 50 50
45 42 43 41 37 36 35 34 33 34 36 35 30 26 24 22 22 22 22 22 20 18 16 14 14 19 21 22 22 21 21 20 20 18 15 14 12 7 5 5 7 11 14 16 17 15 12 15 16 16 18 20 21 22 23 23 24 24 24 24 24 25 26 26 26 26 27 28 29 31 33 34 33 33 32 33 35 39 43 45 46 47 48 48 49 49
46 42 43 44 39 36 36 35 33 35 38 38 32 28 27 27 26 26 25 24 21 16 14 13 13 16 19 21 23 22 21 21 21 20 19 16 13 9 7 6 8 12 16 17 17 15 12 13 14 16 18 20 21 21 22 23 24 24 25 25 25 26 27 27 27 26 27 28 30 31 32 31 30 30 32 35 38 42 44 45 46 46 47 47 48 49
48 44 43 45 44 39 38 38 36 35 37 39 34 30 29 30 30 30 29 28 25 21 18 18 18 17 19 22 23 22 22 23 23 23 22 19 16 12 10 9 11 15 18 18 16 14 13 12 14 16 19 21 21 21 22 23 24 24 25 25 25 26 26 26 25 25 25 26 27 27 27 26 27 30 34 37 41 43 44 45 46 46 46 47 49 50
49 48 45 46 46 44 42 41 40 37 37 38 37 34 33 33 33 33 32 30 29 25 21 20 21 22 22 23 23 22 23 24 25 25 22 19 17 13 11 12 14 17 18 18 16 14 13 14 15 18 20 20 20 20 21 22 23 24 24 25 26 26 25 25 24 24 25 24 23 23 23 26 29 33 37 39 42 43 44 44 45 45 46 48 49 50
53 51 50 47 46 46 47 46 45 43 41 39 38 37 37 36 36 36 33 30 30 27 23 21 23 24 24 24 25 25 25 25 24 23 21 19 18 15 13 15 16 17 17 16 14 13 14 15 17 20 20 20 20 20 20 21 22 24 25 26 26 25 25 25 25 24 23 21 21 22 25 29 32 36 39 41 42 43 43 44 45 46 48 49 51 52
59 54 51 50 48 47 47 48 48 47 45 41 39 39 39 38 37 37 35 34 33 31 26 22 24 26 27 27 27 28 26 23 22 22 22 22 20 18 15 16 18 17 17 16 15 14 15 17 19 21 21 20 19 20 20 21 23 25 26 26 26 25 26 26 26 24 21 20 21 24 28 32 35 38 41 42 43 43 43 44 46 48 50 51 52 52
59 57 52 49 50 51 50 49 49 48 46 42 40 40 38 37 37 37 38 37 37 37 33 28 27 30 32 31 30 29 27 25 24 25 24 23 22 20 18 18 19 18 17 16 16 15 16 19 21 21 20 20 19 19 20 22 24 26 27 26 26 26 26 27 26 23 20 20 23 27 30 34 37 40 41 42 43 44 45 46 47 49 51 52 53 53
49 55 53 45 42 48 53 53 51 49 45 43 42 42 39 38 39 39 38 38 38 39 39 36 34 35 36 34 30 29 28 28 27 25 23 23 23 21 19 20 19 18 18 17 16 17 19 21 21 20 20 20 19 19 21 23 25 27 27 26 26 26 26 26 24 21 19 21 25 29 32 36 39 41 42 43 44 45 46 47 48 50 51 52 53 54
38 46 55 51 41 40 46 51 51 48 43 40 40 42 42 41 40 40 38 38 38 38 39 40 40 40 38 35 33 32 31 29 27 24 22 23 23 21 21 22 20 19 19 18 17 19 21 21 21 20 20 20 20 20 22 24 26 27 26 26 26 27 26 25 23 20 19 23 27 31 34 37 39 41 42 43 44 45 46 47 49 50 51 53 54 55
37 38 50 57 52 43 40 43 47 45 40 37 36 37 40 42 41 38 38 38 38 36 37 39 42 42 39 35 35 35 31 28 26 24 23 22 22 21 22 22 20 19 19 18 19 20 21 21 21 21 21 20 21 22 23 25 27 27 27 27 27 28 27 25 21 19 21 25 29 33 36 38 40 42 43 43 44 45 46 47 49 50 52 53 55 56
41 38 40 49 56 52 44 42 46 45 41 38 36 34 35 39 40 37 37 38 38 36 36 37 39 41 40 36 34 33 31 29 28 26 25 24 23 23 22 21 20 20 19 20 21 21 21 21 21 21 21 21 22 23 25 26 27 27 27 27 28 28 27 23 21 21 23 27 31 34 37 39 41 43 43 43 44 45 46 48 49 51 52 54 55 56
42 40 38 40 50 56 51 45 46 48 46 43 42 39 37 37 39 38 37 37 38 37 36 35 36 39 39 37 34 33 33 33 29 25 25 26 25 23 22 21 21 21 21 22 22 22 22 22 22 22 22 23 23 24 25 26 27 27 27 27 28 27 25 22 21 23 26 29 33 36 38 40 42 43 44 44 44 45 46 48 50 52 53 55 56 57
41 41 39 35 41 52 56 51 46 47 49 48 45 43 41 39 39 40 39 38 39 39 37 35 34 36 37 36 34 33 35 35 29 24 24 26 25 23 22 22 23 23 24 24 24 23 23 23 23 23 23 24 24 24 25 27 27 27 27 27 28 27 24 23 23 25 28 31 34 36 39 41 43 44 44 44 45 46 47 49 51 52 54 55 57 58
41 42 41 37 35 41 51 56 53 49 49 50 49 46 44 42 41 42 42 41 41 41 41 38 36 35 33 33 34 33 34 35 31 25 23 24 24 23 23 23 24 25 25 24 24 24 24 24 24 24 24 25 25 25 26 27 28 28 28 28 28 27 25 24 25 27 29 32 34 36 39 41 44 45 45 45 46 47 49 50 52 53 55 56 58 59
41 41 42 41 37 35 40 52 58 54 50 50 51 49 47 45 44 43 45 45 44 44 44 43 42 39 35 33 34 33 34 36 35 29 23 20 19 21 22 23 24 25 25 25 25 25 24 24 24 25 25 26 26 27 27 28 28 29 29 28 28 27 26 26 27 28 30 32 34 36 39 42 44 45 46 47 48 48 49 51 53 55 57 58 60 62
42 42 42 42 41 37 36 42 52 56 53 51 51 51 50 49 46 45 45 46 46 47 48 46 45 43 38 36 35 34 35 38 36 30 23 21 20 21 23 24 25 25 26 26 26 25 24 25 25 26 26 27 27 28 28 28 29 30 30 30 29 27 27 27 27 28 30 32 35 37 40 42 44 46 46 47 48 49 50 52 54 56 58 60 63 65
42 42 43 43 42 41 40 39 42 48 50 51 52 52 52 51 49 46 46 47 46 47 49 50 48 44 40 39 38 37 38 39 36 29 25 25 25 25 26 27 27 27 28 28 26 25 26 27 27 27 27 27 28 28 28 29 31 32 32 31 30 28 27 27 27 28 30 33 35 38 41 43 45 46 46 47 48 49 50 52 54 57 58 60 63 66
Wind_Direction
197 240 275 271 262 250 197 219 235 219 180 189 152 142 164 185 174 162 157 152 149 148 155 186 182 182 219 335 12 17 29 28 14 10 22 31 48 74 87 100 105 106 111 112 106 98 93 94 95 94 92 87 86 84 80 77 75 74 73 70 65 60 58 56 49 39 32 32 32 23 11 11 14 11 7 1 358 357 353 347 342 343 345 340 334 332
336 332 354 342 269 258 246 220 222 209 179 185 189 185 193 196 188 175 166 170 173 155 159 226 215 188 196 250 5 48 62 66 61 43 44 54 66 79 92 103 106 111 118 112 102 99 99 101 102 100 96 90 90 89 87 85 80 77 74 71 67 62 58 57 54 46 38 36 35 31 20 17 18 14 8 5 3 358 351 345 345 346 341 334 334 334
337 336 336 323 278 261 250 230 218 206 196 188 190 201 199 192 193 190 180 192 204 158 157 231 247 201 161 169 32 73 77 86 85 74 69 75 81 89 102 108 107 108 109 107 107 110 110 109 105 99 93 93 95 92 88 84 80 77 75 73 72 67 63 60 57 51 44 39 36 33 28 22 16 12 7 5 3 357 350 346 346 343 336 336 339 338
328 329 313 281 255 245 244 248 232 213 209 198 191 199 194 189 200 204 193 194 195 154 178 243 271 277 119 124 135 88 84 92 86 78 76 82 89 97 102 103 103 103 104 106 107 104 102 105 102 95 93 95 95 91 86 81 77 76 74 73 71 68 63 58 55 52 46 41 38 34 30 21 13 7 4 2 358 352 346 344 343 340 340 341 341 338
322 319 289 271 252 230 225 248 236 217 216 210 199 196 197 198 206 217 214 202 185 146 199 262 287 288 300 96 128 130 108 93 87 84 82 85 93 98 97 96 98 99 100 100 93 87 89 93 93 92 94 93 90 87 84 79 75 72 70 67 65 63 58 54 50 47 42 37 33 29 25 19 10 2 359 356 350 343 340 341 342 342 342 341 339 336
329 335 305 283 247 226 220 231 234 226 225 220 204 198 209 207 202 224 235 210 178 127 124 280 279 257 265 278 125 129 122 104 93 92 92 91 95 99 98 95 95 95 96 100 92 85 91 90 91 94 94 91 87 84 81 78 74 69 64 60 57 54 50 45 40 36 33 28 22 17 13 8 4 358 352 346 340 338 341 343 343 342 340 338 335 333
76 10 335 303 239 225 221 222 227 226 225 224 211 207 218 210 200 226 239 212 155 139 167 269 263 225 236 258 125 120 114 108 104 99 99 100 99 101 103 102 104 104 103 104 101 100 100 97 96 95 92 89 86 83 80 76 71 64 57 51 47 43 40 35 30 25 21 17 13 9 4 360 357 354 348 342 341 343 345 344 341 338 336 332 330 329
172 210 294 334 287 245 230 223 220 219 222 224 215 214 222 215 210 227 230 208 139 169 196 232 254 226 216 185 120 124 120 112 112 110 107 109 108 103 105 110 114 111 106 103 104 106 103 101 99 95 91 88 84 78 75 70 63 56 47 40 35 32 29 26 23 19 15 12 8 6 2 358 354 351 348 346 347 347 344 341 337 334 331 330 329 329
237 240 217 170 323 291 263 232 222 225 227 228 223 220 223 217 218 224 213 189 167 175 224 245 247 224 188 143 119 124 131 123 118 118 116 116 119 115 111 114 115 111 108 104 105 107 104 101 98 93 87 82 78 71 64 58 51 44 35 29 26 24 21 20 18 15 14 11 8 4 360 356 352 349 348 347 345 342 338 336 334 333 332 332 332 332
241 237 225 186 184 291 271 233 220 230 232 224 219 218 221 221 221 219 207 202 208 211 225 236 226 202 160 138 131 131 141 138 128 122 119 121 125 127 123 120 116 112 109 105 106 109 106 102 99 93 85 77 70 63 55 47 40 33 27 25 22 20 18 16 15 12 10 8 4 1 356 353 349 346 344 343 340 338 338 338 337 337 336 335 335 335
229 197 213 213 226 254 249 228 212 223 229 209 203 211 218 220 217 212 209 217 225 205 203 213 215 195 165 153 165 160 149 140 134 127 123 127 129 131 130 124 118 112 110 111 113 115 109 103 101 95 86 72 60 54 50 44 35 27 24 24 21 17 14 11 9 6 4 2 358 354 351 348 345 343 342 340 341 343 343 343 342 340 339 338 338 337
221 197 205 217 226 226 226 229 219 223 226 207 206 214 211 212 213 206 208 216 218 206 198 204 209 192 174 175 175 168 157 145 142 137 133 135 136 137 134 124 119 114 114 119 119 118 110 100 97 90 78 65 51 43 41 37 29 20 17 18 17 14 10 7 3 359 356 354 351 348 346 345 344 344 344 344 346 347 346 345 344 342 342 341 340 338
211 202 204 209 217 214 206 220 219 211 213 207 207 207 203 211 216 211 213 216 213 207 200 204 206 184 167 173 173 167 161 153 151 148 141 143 144 144 139 124 117 115 117 122 120 112 104 92 76 57 51 48 38 30 27 22 15 13 12 11 11 9 7 3 357 352 349 347 346 345 344 345 346 346 346 348 348 348 347 347 346 345 344 343 341 340
213 205 207 212 223 217 199 198 196 192 208 213 204 193 190 198 204 209 215 207 200 198 196 200 197 176 162 173 182 174 161 154 159 161 155 151 147 147 146 131 121 120 119 120 115 101 85 68 44 25 24 25 18 12 10 4 356 358 5 4 1 360 360 358 352 346 345 344 343 343 344 346 346 347 348 350 350 349 349 348 347 347 346 344 343 342
240 226 230 234 231 222 205 190 181 180 200 215 206 189 180 185 190 201 205 192 189 189 188 194 195 180 169 173 181 174 165 168 170 167 162 152 145 147 153 145 130 126 122 106 93 80 53 35 23 14 13 10 6 360 354 348 343 344 351 354 352 352 351 349 346 342 341 343 342 343 345 346 347 349 351 351 351 351 351 351 350 349 348 346 345 344
259 254 258 244 223 221 220 203 185 187 206 217 218 198 184 187 187 188 191 188 187 184 183 188 184 180 179 176 175 169 171 183 177 164 158 149 141 143 150 148 124 113 109 85 71 60 36 33 24 11 359 353 352 351 345 339 339 339 342 346 343 343 345 343 341 340 340 342 344 345 347 348 349 351 353 354 354 353 353 353 352 351 350 348 346 346
279 275 270 255 224 214 221 216 199 207 227 227 224 198 183 187 185 182 181 180 184 186 186 185 173 175 181 172 165 163 170 178 167 152 147 140 134 132 134 134 112 101 98 81 68 54 42 42 32 14 356 350 346 344 342 339 338 338 340 342 338 333 335 337 338 338 339 342 346 348 349 349 349 350 352 353 353 354 353 352 351 349 347 345 344 343
282 276 270 265 244 218 216 223 212 201 218 233 212 189 182 187 188 187 178 171 177 186 189 188 175 170 173 168 163 162 163 161 147 137 135 129 126 124 120 118 110 99 94 84 75 57 41 37 27 13 2 354 347 342 340 338 335 334 334 336 333 329 326 328 331 334 338 342 345 348 349 348 347 347 349 350 350 350 350 349 347 345 344 343 342 341
266 268 268 263 246 220 211 219 215 199 197 224 191 173 167 173 178 184 178 169 172 179 186 198 188 176 176 181 172 156 149 145 132 127 131 124 118 117 114 114 111 92 74 61 49 34 25 22 13 7 9 359 348 342 337 335 332 327 326 327 324 322 320 319 323 328 334 339 342 345 346 344 343 342 342 343 344 344 345 345 345 344 343 342 341 340
256 262 268 263 248 229 220 214 204 192 185 187 173 160 155 162 168 173 178 177 178 179 186 201 201 197 185 183 181 138 118 120 120 118 128 121 108 104 105 105 96 65 41 31 28 21 14 9 353 351 7 2 346 341 336 334 331 324 323 322 317 314 314 313 317 324 332 336 338 339 340 339 336 335 334 335 336 338 340 342 343 342 341 339 338 337
249 256 265 269 262 242 226 210 191 187 183 174 169 161 160 170 176 176 180 189 191 188 195 200 204 218 195 149 169 131 118 118 114 104 111 107 91 84 91 93 80 55 36 26 23 17 11 7 347 338 353 359 345 337 333 328 327 330 329 322 313 310 310 312 318 324 329 332 334 335 334 333 331 330 330 331 332 334 335 337 339 339 338 337 335 334
237 249 260 268 267 245 218 198 188 189 180 176 179 170 165 172 175 177 186 201 204 203 212 212 209 223 217 116 59 156 129 121 113 83 80 81 82 82 86 88 80 62 46 28 19 14 10 6 354 340 340 346 337 324 322 320 321 329 328 317 309 308 311 316 322 325 327 329 332 332 329 328 328 329 329 329 329 330 331 333 334 335 335 334 333 332
222 237 252 263 267 258 232 199 188 189 185 187 191 182 177 177 173 178 190 205 214 220 231 236 231 224 219 216 249 238 153 122 108 82 53 64 75 70 76 87 84 66 48 18 11 13 13 6 357 349 342 339 333 325 322 321 318 315 310 307 309 311 313 316 319 322 324 326 327 326 324 323 325 327 327 327 327 327 328 330 331 332 332 332 331 331
214 224 239 256 265 264 253 218 189 189 200 202 198 190 185 180 175 182 197 204 209 221 239 250 248 238 229 237 248 250 206 91 78 70 347 54 69 36 18 88 105 50 4 3 12 12 11 2 353 354 350 340 335 332 325 316 309 303 301 306 312 313 314 314 317 320 322 324 326 324 322 321 323 325 325 325 325 326 328 329 330 331 331 331 331 330
210 214 226 239 245 248 248 228 198 195 204 204 202 196 188 186 187 192 202 207 205 215 234 244 249 257 259 254 257 266 346 12 23 29 269 317 53 279 283 291 297 328 351 19 19 6 354 347 345 352 352 339 333 332 325 313 308 307 310 313 312 312 315 318 320 321 321 323 325 324 323 322 323 323 323 323 325 327 329 330 332 332 331 331 330 330
207 210 216 222 227 236 241 227 209 207 209 205 204 201 195 198 203 202 204 210 210 215 227 237 249 266 271 266 275 289 326 344 340 337 307 305 312 297 301 320 333 349 11 19 7 352 341 335 335 340 341 332 327 327 322 315 310 308 309 309 307 309 313 315 315 315 316 318 319 320 321 322 322 323 324 325 327 328 330 331 332 332 330 329 329 329
205 207 212 214 221 233 239 232 222 217 212 209 211 211 206 205 210 213 213 212 214 216 222 235 248 260 266 271 283 287 296 311 316 333 346 316 312 321 334 351 356 360 8 1 346 338 334 329 326 330 331 325 322 321 318 316 311 305 302 302 304 308 308 307 307 307 308 310 313 317 319 319 322 324 325 326 327 328 329 330 331 330 328 327 327 328
206 208 212 212 214 219 223 228 231 223 209 201 208 222 226 220 217 221 220 212 210 212 219 239 249 256 266 274 280 283 291 300 303 318 335 319 317 334 351 357 354 352 354 346 335 329 328 326 324 328 328 324 322 321 320 321 318 312 308 306 307 307 307 306 306 305 305 306 310 315 318 320 323 324 325 326 326 327 327 326 326 325 324 324 325 326
206 209 213 214 212 210 208 214 229 230 213 195 200 221 231 229 221 217 220 225 227 218 216 235 249 256 262 267 271 274 281 285 285 293 310 311 314 337 355 354 343 339 338 333 328 326 326 326 326 326 327 326 324 322 323 324 322 319 316 314 311 310 310 309 307 306 306 307 312 317 320 323 325 326 326 325 323 321 320 321 321 321 322 324 325 326
207 207 213 216 211 203 202 211 227 235 219 196 199 217 225 227 222 213 214 251 263 245 225 225 239 250 257 262 266 269 273 275 273 274 295 305 317 341 350 342 327 325 325 322 323 326 325 326 326 326 326 325 323 323 324 324 322 321 319 316 314 313 313 312 310 310 310 310 313 316 319 323 325 326 325 323 320 317 317 319 320 322 325 326 326 327
212 208 214 218 210 202 207 216 225 230 219 200 195 200 209 219 224 226 228 238 250 248 234 226 230 240 252 261 266 267 268 270 270 268 272 280 295 324 334 322 313 313 314 314 320 325 325 323 323 323 322 322 321 321 323 323 322 321 318 315 315 315 316 315 314 314 314 314 315 315 316 319 322 324 324 322 320 319 321 322 324 325 326 326 327 329
214 212 216 219 214 207 210 218 223 223 216 204 194 192 200 210 218 234 246 247 249 248 239 235 237 242 251 259 265 268 268 268 270 269 268 264 262 276 296 301 303 305 307 312 318 324 323 318 317 317 317 319 320 321 322 323 322 321 320 319 319 319 318 317 317 319 319 319 319 319 319 320 322 324 325 323 322 323 323 324 325 326 327 327 328 329
213 213 216 218 215 211 212 218 221 219 213 203 194 196 207 210 207 214 234 244 245 241 237 241 246 246 248 254 261 264 265 265 267 268 268 260 248 247 272 293 301 302 304 309 314 319 317 311 309 310 313 317 318 319 321 323 323 323 324 324 323 321 320 317 315 316 319 321 323 323 324 325 325 325 324 322 322 322 322 324 326 328 328 329 329 329
213 213 215 216 214 213 215 217 217 216 212 203 194 199 211 213 203 202 219 235 236 234 235 240 247 247 247 254 260 263 264 264 264 264 264 260 254 250 257 281 294 295 295 300 305 310 310 303 302 306 310 313 315 317 319 320 322 323 324 325 324 322 320 318 314 311 312 315 318 322 325 326 325 324 322 321 321 322 324 327 329 329 329 329 330 331
214 213 214 214 212 211 214 217 215 213 212 204 196 199 209 211 203 199 214 230 233 233 235 241 255 261 259 259 263 266 267 264 260 260 262 266 270 267 247 252 277 283 284 288 294 299 297 293 297 305 308 309 312 314 316 318 320 321 322 323 324 322 322 322 319 314 310 309 313 317 320 321 322 322 323 324 326 327 328 329 329 329 329 330 331 332
212 212 212 210 209 207 210 214 214 211 211 206 197 195 202 206 205 204 214 226 227 223 224 228 244 261 265 264 264 264 263 261 259 261 264 268 273 268 255 255 267 273 275 278 283 288 287 287 296 303 304 305 307 310 313 316 319 320 321 322 322 322 322 323 323 319 314 311 311 313 316 319 322 325 327 329 329 329 329 329 330 330 331 331 331 332
210 210 210 208 207 206 207 212 213 210 211 209 202 197 200 205 209 211 216 224 225 219 218 220 223 231 244 253 256 255 255 257 259 262 266 270 272 270 269 265 259 261 268 274 280 284 285 287 294 297 297 299 303 307 311 315 317 318 319 319 319 319 320 321 320 318 316 313 313 314 319 325 329 330 330 330 329 329 330 331 331 332 332 332 332 332
213 209 210 209 208 208 208 211 213 212 212 212 208 203 202 205 210 212 214 221 226 224 224 225 223 223 231 241 248 250 253 257 260 264 269 274 276 277 274 262 253 255 263 272 278 281 283 287 290 290 292 296 301 306 311 314 316 316 315 316 317 318 318 316 314 314 315 317 319 324 330 333 333 332 331 331 331 332 333 332 332 332 332 332 332 332
220 212 211 212 211 211 211 213 215 216 217 217 214 209 206 208 211 212 213 219 223 223 224 228 227 226 229 236 244 250 253 258 262 265 270 275 280 281 271 259 258 261 266 272 275 276 282 287 286 287 292 297 302 308 312 314 314 314 315 316 318 318 316 315 315 317 321 324 329 334 336 334 333 332 332 333 334 334 333 332 333 333 333 333 333 333
225 219 215 214 214 214 214 215 217 219 219 218 215 212 209 211 214 216 218 221 221 218 218 226 234 235 234 235 241 248 254 261 266 267 270 274 276 275 267 262 264 268 270 272 274 277 283 284 283 288 294 298 305 311 313 315 316 316 317 317 318 318 318 319 321 324 327 330 333 335 333 331 332 333 335 335 335 334 333 333 334 334 333 333 333 332
225 224 221 218 218 219 219 218 220 221 220 217 212 210 211 215 219 221 222 222 221 218 215 219 231 239 239 239 241 245 248 254 259 263 268 271 271 270 268 265 265 268 270 272 276 281 283 282 284 290 295 300 307 312 314 316 317 317 317 318 319 321 322 323 324 325 327 329 330 330 330 331 333 334 334 334 333 334 334 334 334 333 332 332 331 331
220 223 221 220 219 219 219 220 222 223 222 219 214 213 218 224 226 226 225 222 221 221 218 217 224 234 239 241 243 242 240 244 253 260 266 269 269 268 265 261 262 266 268 271 276 279 279 280 286 292 296 302 308 311 313 315 316 316 316 318 320 321 321 322 322 322 322 324 325 326 328 330 332 332 332 332 333 334 334 333 332 331 331 330 329 329
219 217 217 220 220 216 214 216 219 221 220 219 219 219 223 227 230 231 229 225 224 225 224 221 223 229 236 241 243 241 237 239 250 258 262 264 264 260 257 257 260 263 265 269 273 275 277 281 288 293 297 302 306 308 311 313 314 315 316 319 320 320 319 319 318 316 316 318 321 324 326 328 329 330 331 332 333 333 332 331 330 330 329 329 329 329
228 219 215 218 222 222 219 216 217 218 216 214 216 219 222 226 230 231 231 229 229 229 228 226 225 228 233 239 242 241 236 237 246 255 259 260 258 253 252 256 258 259 262 266 269 271 277 283 288 292 297 300 303 305 307 310 312 314 317 320 321 320 318 315 313 310 311 314 318 322 324 326 328 329 330 331 331 331 330 329 329 328 328 328 329 329
237 229 219 217 219 222 225 224 222 221 220 218 219 220 221 223 226 228 230 231 231 231 230 228 227 229 231 233 237 240 238 236 240 248 254 253 249 247 248 252 254 255 258 262 266 271 277 282 286 291 294 297 299 301 303 307 310 314 317 319 320 318 315 312 309 306 308 311 316 320 322 324 327 328 329 329 329 329 328 328 328 328 327 327 328 328
240 236 229 221 218 218 221 226 229 228 227 226 226 225 224 222 222 224 227 229 230 231 231 228 228 230 232 232 233 237 241 240 237 239 244 244 240 241 244 247 248 250 254 259 264 271 276 279 284 287 290 292 294 297 301 305 309 312 315 316 316 315 312 309 305 304 306 310 314 317 320 323 326 327 327 327 327 327 327 327 327 327 327 327 327 328
240 238 234 227 221 218 219 224 230 233 232 229 227 227 227 223 220 221 224 227 228 231 232 231 230 230 233 235 235 238 244 245 237 226 227 234 237 240 242 245 247 250 254 259 264 270 274 277 280 283 286 288 291 293 298 302 306 310 312 313 314 312 308 303 302 303 306 310 314 317 320 323 325 326 326 325 326 326 327 327 326 326 326 327 328 328
239 238 236 232 225 221 220 222 225 230 232 229 226 226 226 225 222 222 225 228 230 232 233 233 232 231 233 236 237 239 245 248 240 228 223 229 237 241 243 245 249 252 255 260 264 268 272 274 276 279 283 286 288 291 295 299 303 308 310 311 311 308 302 298 299 303 307 311 315 318 321 323 324 325 325 325 325 326 326 326 326 326 326 327 328 329
236 236 236 235 230 225 222 221 222 225 229 229 227 225 226 226 226 226 228 229 231 235 236 235 236 236 237 239 238 239 244 248 248 244 234 224 228 239 244 246 249 252 255 259 262 265 269 271 274 279 283 285 287 290 294 297 301 306 307 307 306 303 297 294 297 302 307 312 316 319 321 323 324 325 325 325 325 326 326 325 326 326 327 328 329 330
234 233 234 234 232 228 224 221 221 223 226 229 229 227 226 228 228 230 231 230 231 235 238 238 239 240 241 244 244 244 249 254 256 254 239 222 221 233 240 244 248 250 253 257 260 263 267 270 274 279 282 284 287 290 292 295 299 303 305 305 304 300 295 293 297 303 309 313 316 319 322 324 325 324 324 325 325 325 326 326 327 328 329 330 330 331
231 230 232 233 232 230 227 222 219 219 222 226 228 227 227 228 229 231 232 232 231 233 237 239 241 242 243 244 247 250 254 258 259 255 240 227 226 231 236 241 246 248 250 254 258 261 264 268 274 278 280 283 287 289 293 295 298 302 304 303 302 299 296 294 298 304 309 313 317 320 323 324 324 324 324 325 325 325 326 327 329 330 331 331 331 331
Height
5795 5795 5796 5796 5795 5794 5794 5793 5793 5793 5794 5795 5795 5794 5795 5795 5795 5795 5794 5794 5793 5793 5793 5795 5796 5797 5797 5796 5795 5796 5796 5795 5794 5794 5793 5793 5793 5792 5792 5792 5792 5792 5792 5792 5792 5793 5793 5793 5792 5792 5792 5792 5791 5791 5791 5790 5789 5789 5788 5788 5787 5787 5786 5786 5785 5785 5784 5784 5783 5782 5781 5780 5779 5778 5777 5776 5775 5773 5772 5771 5770 5769 5767 5766 5765 5763
5793 5793 5793 5793 5793 5793 5793 5792 5792 5793 5794 5795 5795 5795 5795 5796 5796 5795 5794 5795 5794 5793 5793 5794 5796 5797 5797 5796 5796 5796 5796 5796 5795 5794 5794 5793 5793 5792 5792 5792 5792 5793 5793 5793 5793 5793 5793 5793 5793 5793 5792 5792 5791 5791 5791 5790 5790 5789 5789 5788 5787 5787 5786 5786 5786 5785 5784 5783 5783 5782 5781 5780 5779 5778 5777 5776 5775 5773 5772 5771 5770 5768 5767 5766 5764 5763
5792 5792 5792 5792 5792 5792 5793 5792 5792 5793 5794 5795 5796 5795 5795 5795 5795 5795 5794 5795 5795 5793 5793 5794 5795 5796 5797 5797 5796 5796 5797 5796 5795 5795 5794 5794 5793 5792 5793 5793 5793 5794 5794 5793 5794 5794 5794 5794 5793 5793 5793 5793 5792 5792 5791 5791 5790 5790 5789 5789 5788 5788 5787 5786 5786 5785 5785 5784 5783 5782 5781 5780 5779 5778 5777 5776 5775 5773 5772 5771 5770 5768 5767 5765 5763 5762
5792 5792 5791 5791 5791 5792 5792 5793 5793 5793 5794 5795 5795 5795 5795 5795 5795 5795 5794 5794 5794 5792 5793 5794 5794 5795 5795 5796 5796 5796 5796 5796 5795 5795 5794 5794 5793 5793 5793 5793 5793 5794 5794 5794 5794 5795 5794 5794 5794 5794 5794 5793 5793 5792 5792 5791 5791 5791 5790 5790 5789 5788 5788 5787 5787 5786 5785 5784 5783 5782 5781 5780 5779 5778 5777 5776 5775 5774 5773 5771 5770 5768 5767 5765 5763 5761
5792 5791 5790 5790 5791 5791 5791 5792 5793 5793 5794 5794 5794 5794 5794 5795 5795 5795 5794 5793 5792 5791 5792 5794 5794 5793 5793 5794 5795 5795 5796 5796 5794 5794 5794 5794 5793 5793 5793 5793 5793 5794 5794 5795 5795 5795 5795 5795 5795 5794 5794 5794 5794 5793 5793 5792 5792 5792 5791 5791 5790 5789 5789 5788 5787 5786 5785 5784 5783 5782 5781 5781 5779 5778 5777 5776 5775 5774 5773 5771 5769 5767 5765 5764 5762 5760
5792 5791 5790 5790 5790 5790 5790 5791 5792 5792 5792 5793 5793 5793 5794 5794 5794 5794 5795 5793 5791 5791 5792 5793 5793 5793 5793 5793 5794 5795 5795 5795 5794 5794 5794 5793 5794 5793 5793 5794 5794 5794 5795 5795 5795 5795 5796 5796 5795 5795 5795 5795 5795 5794 5794 5793 5793 5793 5792 5792 5791 5790 5789 5789 5788 5787 5786 5785 5784 5783 5782 5781 5780 5779 5777 5776 5775 5774 5772 5770 5768 5766 5764 5763 5761 5760
5791 5791 5790 5790 5789 5789 5789 5790 5790 5791 5791 5792 5793 5793 5793 5793 5793 5793 5794 5792 5791 5791 5792 5793 5793 5793 5793 5793 5793 5794 5794 5794 5793 5793 5793 5794 5794 5794 5794 5794 5795 5795 5795 5796 5796 5796 5796 5796 5796 5796 5796 5796 5796 5795 5795 5794 5794 5794 5793 5792 5792 5791 5790 5789 5788 5787 5786 5785 5784 5783 5781 5780 5779 5778 5777 5776 5774 5772 5770 5768 5767 5765 5764 5762 5761 5759
5791 5790 5790 5790 5789 5788 5789 5789 5789 5790 5791 5791 5792 5791 5791 5792 5792 5792 5792 5791 5790 5791 5792 5792 5792 5792 5792 5792 5793 5793 5793 5793 5793 5793 5793 5794 5795 5795 5795 5795 5796 5796 5796 5796 5796 5797 5797 5797 5797 5797 5797 5797 5797 5796 5796 5795 5794 5794 5793 5793 5792 5791 5790 5789 5788 5787 5786 5785 5784 5782 5781 5780 5779 5778 5776 5775 5772 5771 5769 5768 5766 5765 5763 5761 5759 5757
5790 5790 5789 5789 5788 5788 5788 5788 5789 5790 5790 5790 5791 5791 5791 5791 5792 5792 5792 5790 5790 5791 5792 5792 5792 5792 5792 5792 5792 5793 5793 5793 5793 5793 5794 5794 5795 5795 5796 5796 5796 5796 5796 5797 5797 5798 5798 5798 5798 5798 5798 5798 5797 5797 5796 5795 5794 5794 5793 5793 5792 5791 5790 5789 5788 5787 5786 5785 5783 5782 5781 5779 5778 5776 5775 5773 5772 5770 5769 5767 5766 5764 5762 5760 5758 5755
5789 5789 5789 5788 5787 5787 5787 5788 5788 5789 5789 5790 5790 5791 5790 5790 5791 5792 5791 5791 5790 5791 5791 5792 5792 5792 5792 5792 5792 5793 5793 5793 5793 5793 5794 5795 5795 5796 5797 5797 5797 5797 5797 5798 5799 5799 5799 5799 5799 5799 5798 5798 5797 5797 5796 5795 5794 5794 5793 5793 5792 5791 5790 5789 5788 5786 5785 5784 5783 5781 5780 5778 5777 5775 5774 5772 5771 5770 5768 5766 5765 5763 5760 5758 5756 5754
5788 5788 5788 5788 5786 5786 5787 5787 5788 5789 5788 5789 5790 5790 5790 5790 5791 5791 5791 5791 5791 5791 5791 5792 5792 5792 5792 5792 5792 5793 5793 5793 5793 5793 5794 5795 5796 5797 5798 5798 5797 5798 5798 5799 5800 5800 5800 5799 5799 5799 5799 5798 5797 5797 5796 5795 5795 5794 5793 5792 5791 5791 5790 5788 5787 5786 5785 5783 5782 5780 5779 5777 5776 5775 5773 5772 5770 5768 5767 5765 5763 5761 5759 5757 5755 5752
5787 5787 5788 5787 5786 5785 5786 5787 5788 5788 5788 5788 5789 5789 5790 5790 5790 5790 5790 5790 5791 5791 5791 5792 5792 5792 5792 5792 5793 5793 5794 5794 5794 5794 5795 5796 5797 5798 5798 5798 5798 5799 5799 5800 5800 5800 5800 5799 5799 5799 5799 5798 5797 5797 5796 5795 5795 5794 5794 5792 5791 5790 5789 5788 5787 5786 5784 5783 5781 5780 5778 5777 5775 5774 5772 5771 5769 5767 5765 5763 5762 5760 5757 5755 5753 5751
5785 5786 5786 5786 5785 5785 5785 5786 5787 5788 5788 5789 5789 5789 5789 5789 5789 5789 5789 5790 5790 5790 5791 5792 5792 5791 5792 5792 5793 5794 5795 5795 5795 5795 5795 5796 5798 5798 5798 5798 5798 5799 5800 5800 5800 5800 5799 5800 5800 5800 5799 5798 5797 5797 5796 5795 5795 5794 5793 5792 5791 5790 5789 5788 5787 5786 5784 5783 5781 5779 5778 5776 5775 5773 5772 5770 5768 5766 5764 5762 5760 5758 5756 5754 5752 5750
5784 5784 5785 5785 5784 5784 5785 5786 5787 5787 5788 5788 5789 5788 5787 5787 5788 5788 5789 5789 5790 5790 5791 5792 5792 5791 5792 5793 5794 5795 5796 5796 5795 5795 5796 5797 5798 5798 5798 5797 5798 5799 5800 5800 5800 5800 5799 5800 5800 5799 5798 5798 5797 5797 5796 5795 5795 5794 5793 5792 5791 5790 5788 5787 5786 5785 5784 5782 5780 5779 5777 5776 5774 5772 5771 5769 5767 5765 5764 5762 5760 5757 5755 5753 5751 5749
5783 5783 5784 5784 5784 5783 5784 5785 5786 5786 5787 5788 5788 5787 5786 5787 5787 5788 5788 5789 5789 5790 5790 5791 5791 5791 5792 5793 5794 5795 5796 5796 5796 5796 5797 5797 5797 5798 5798 5797 5798 5800 5800 5800 5800 5799 5799 5800 5799 5798 5798 5797 5796 5796 5795 5795 5794 5793 5792 5791 5790 5789 5788 5787 5786 5784 5783 5781 5780 5778 5777 5775 5774 5772 5770 5768 5767 5765 5763 5761 5759 5757 5755 5753 5751 5748
5782 5782 5782 5783 5783 5783 5783 5783 5784 5784 5785 5786 5786 5785 5786 5786 5787 5787 5788 5789 5789 5789 5790 5790 5791 5791 5792 5793 5794 5795 5796 5796 5797 5797 5797 5797 5797 5797 5798 5798 5798 5799 5800 5799 5799 5799 5799 5799 5798 5797 5797 5796 5796 5795 5795 5794 5794 5793 5792 5791 5790 5789 5788 5787 5785 5784 5782 5781 5779 5778 5776 5774 5773 5771 5769 5768 5766 5764 5762 5760 5758 5755 5753 5751 5749 5746
5782 5782 5781 5781 5782 5782 5782 5781 5781 5782 5783 5784 5784 5784 5784 5786 5786 5786 5787 5788 5789 5789 5789 5789 5790 5791 5792 5793 5794 5795 5796 5796 5797 5797 5797 5797 5796 5797 5797 5798 5798 5799 5799 5798 5798 5798 5798 5798 5797 5796 5796 5796 5795 5794 5794 5793 5793 5792 5791 5790 5789 5788 5787 5786 5785 5784 5782 5780 5778 5777 5775 5774 5772 5770 5768 5766 5764 5762 5761 5759 5757 5754 5752 5750 5747 5745
5781 5781 5780 5780 5780 5780 5780 5779 5779 5780 5781 5782 5782 5783 5784 5785 5786 5786 5786 5787 5787 5788 5788 5788 5789 5790 5791 5793 5793 5794 5795 5795 5796 5796 5796 5796 5796 5796 5797 5798 5798 5798 5798 5798 5798 5799 5798 5797 5796 5796 5796 5795 5795 5794 5793 5792 5792 5791 5790 5789 5788 5787 5786 5785 5784 5783 5781 5780 5778 5776 5774 5773 5771 5769 5767 5765 5763 5761 5759 5757 5755 5753 5750 5748 5745 5743
5779 5779 5778 5778 5778 5778 5777 5778 5778 5779 5780 5780 5781 5782 5784 5786 5787 5787 5787 5786 5787 5787 5788 5788 5788 5789 5790 5791 5792 5792 5792 5793 5794 5795 5796 5796 5796 5796 5797 5798 5798 5798 5798 5798 5798 5798 5797 5796 5796 5796 5796 5795 5794 5793 5792 5792 5791 5790 5789 5788 5787 5786 5786 5785 5783 5782 5780 5779 5777 5775 5773 5772 5770 5768 5766 5764 5762 5760 5758 5756 5754 5751 5749 5746 5743 5741
5776 5777 5776 5775 5776 5776 5776 5777 5778 5779 5779 5780 5780 5781 5783 5784 5786 5786 5786 5786 5787 5787 5787 5788 5788 5788 5789 5790 5791 5791 5791 5791 5792 5794 5795 5796 5796 5797 5797 5798 5797 5797 5797 5796 5796 5796 5796 5796 5796 5795 5795 5794 5794 5793 5792 5791 5791 5790 5789 5787 5786 5785 5784 5783 5782 5781 5779 5778 5776 5774 5772 5771 5769 5767 5765 5763 5761 5759 5757 5755 5753 5750 5748 5745 5742 5740
5773 5774 5774 5773 5773 5774 5774 5777 5778 5779 5779 5780 5781 5782 5782 5784 5784 5785 5785 5786 5786 5787 5787 5787 5787 5787 5788 5789 5789 5790 5790 5791 5791 5793 5794 5795 5795 5796 5797 5796 5796 5795 5795 5794 5794 5795 5795 5795 5795 5794 5794 5793 5793 5792 5792 5791 5790 5788 5787 5787 5786 5784 5783 5782 5781 5779 5778 5776 5775 5773 5771 5770 5768 5766 5764 5762 5760 5758 5756 5753 5751 5749 5746 5743 5741 5738
5770 5772 5772 5771 5771 5773 5773 5775 5777 5777 5779 5781 5782 5782 5783 5783 5784 5784 5785 5785 5786 5786 5786 5786 5786 5786 5787 5788 5789 5790 5791 5791 5791 5792 5793 5794 5795 5795 5795 5795 5795 5795 5794 5794 5794 5795 5795 5794 5794 5793 5793 5792 5792 5792 5791 5790 5788 5787 5786 5786 5785 5783 5782 5781 5779 5778 5776 5775 5773 5771 5770 5768 5766 5764 5762 5761 5759 5757 5754 5752 5749 5747 5744 5741 5738 5735
5764 5767 5770 5770 5769 5770 5772 5774 5775 5775 5777 5779 5780 5781 5781 5782 5783 5784 5784 5785 5785 5786 5786 5786 5786 5786 5787 5788 5788 5790 5791 5791 5791 5791 5792 5793 5793 5794 5794 5794 5795 5795 5794 5795 5795 5794 5794 5794 5794 5793 5792 5792 5791 5790 5789 5788 5787 5786 5786 5785 5783 5782 5781 5779 5778 5777 5775 5774 5772 5770 5768 5766 5765 5763 5761 5759 5758 5755 5753 5750 5748 5745 5742 5739 5736 5732
5757 5762 5766 5768 5769 5769 5770 5771 5772 5772 5774 5776 5778 5779 5780 5781 5782 5783 5784 5784 5785 5785 5785 5785 5785 5785 5786 5787 5788 5789 5789 5790 5791 5791 5792 5792 5792 5793 5793 5794 5795 5795 5795 5794 5794 5794 5794 5793 5793 5793 5792 5791 5790 5789 5788 5787 5786 5786 5785 5783 5782 5780 5779 5778 5776 5775 5774 5772 5770 5769 5767 5765 5763 5762 5760 5758 5756 5754 5751 5749 5746 5743 5740 5737 5733 5730
5754 5759 5764 5767 5768 5767 5767 5769 5769 5769 5771 5773 5776 5778 5779 5780 5780 5781 5782 5783 5784 5785 5784 5784 5784 5784 5785 5785 5786 5787 5788 5789 5790 5791 5792 5791 5791 5792 5793 5794 5794 5794 5794 5794 5794 5794 5793 5793 5793 5793 5792 5790 5789 5788 5787 5786 5785 5784 5782 5781 5780 5778 5777 5775 5774 5772 5771 5770 5768 5767 5765 5764 5762 5760 5758 5756 5754 5752 5749 5746 5743 5740 5737 5734 5731 5728
5752 5757 5761 5764 5765 5765 5766 5768 5768 5768 5770 5772 5774 5776 5777 5778 5778 5779 5780 5781 5782 5783 5783 5783 5783 5783 5784 5784 5784 5785 5786 5788 5789 5791 5792 5791 5790 5791 5792 5793 5793 5793 5792 5792 5792 5793 5792 5792 5792 5792 5791 5790 5789 5788 5787 5785 5784 5782 5781 5780 5778 5777 5776 5774 5772 5771 5769 5768 5766 5765 5763 5762 5760 5759 5757 5754 5752 5749 5746 5743 5741 5738 5734 5731 5728 5725
5751 5754 5756 5759 5761 5763 5766 5767 5768 5768 5770 5771 5773 5774 5775 5776 5777 5778 5779 5780 5781 5781 5781 5781 5782 5782 5782 5783 5783 5784 5785 5787 5788 5790 5790 5790 5790 5790 5790 5791 5790 5790 5791 5791 5791 5791 5791 5791 5791 5791 5790 5789 5788 5787 5786 5785 5783 5782 5780 5779 5777 5776 5775 5774 5772 5770 5769 5767 5766 5764 5762 5761 5759 5757 5755 5752 5750 5747 5743 5740 5738 5735 5732 5729 5726 5723
5749 5751 5751 5753 5756 5760 5763 5766 5766 5767 5768 5769 5771 5772 5773 5774 5775 5777 5778 5779 5779 5779 5779 5780 5780 5780 5781 5781 5782 5783 5784 5786 5787 5788 5788 5788 5789 5789 5788 5788 5788 5788 5789 5789 5789 5789 5789 5789 5789 5788 5788 5787 5786 5786 5785 5783 5782 5781 5780 5778 5776 5775 5774 5773 5772 5770 5768 5767 5765 5763 5762 5760 5758 5755 5753 5750 5747 5744 5741 5738 5736 5733 5730 5727 5724 5721
5746 5747 5748 5750 5753 5756 5759 5762 5764 5765 5766 5767 5769 5771 5772 5773 5774 5775 5777 5778 5778 5778 5779 5779 5780 5780 5780 5781 5781 5782 5783 5784 5785 5786 5787 5787 5787 5787 5787 5786 5787 5787 5788 5788 5788 5787 5787 5787 5786 5786 5785 5785 5785 5783 5782 5781 5780 5779 5778 5776 5775 5773 5772 5771 5770 5768 5767 5765 5764 5762 5760 5758 5756 5753 5751 5748 5745 5743 5740 5737 5734 5731 5728 5725 5722 5718
5743 5744 5745 5748 5751 5754 5757 5759 5761 5763 5764 5765 5767 5769 5770 5772 5773 5774 5775 5777 5777 5777 5778 5778 5778 5779 5779 5779 5780 5781 5782 5783 5784 5785 5786 5785 5786 5786 5786 5786 5786 5786 5787 5787 5786 5785 5784 5784 5783 5783 5783 5783 5782 5781 5780 5779 5778 5777 5775 5774 5772 5771 5769 5768 5767 5765 5764 5763 5762 5760 5758 5756 5754 5752 5749 5747 5744 5741 5738 5735 5732 5728 5725 5722 5718 5714
5740 5741 5743 5746 5749 5752 5754 5756 5759 5760 5761 5763 5765 5766 5767 5769 5770 5772 5773 5774 5775 5775 5776 5776 5777 5777 5777 5777 5777 5779 5779 5780 5782 5784 5784 5785 5785 5786 5786 5786 5785 5785 5785 5785 5784 5783 5782 5781 5781 5781 5781 5780 5780 5779 5778 5777 5776 5775 5774 5772 5771 5769 5767 5765 5764 5762 5761 5760 5759 5757 5756 5754 5752 5749 5747 5744 5741 5738 5735 5731 5728 5725 5722 5718 5714 5710
5737 5739 5741 5744 5747 5748 5750 5753 5755 5756 5759 5761 5763 5764 5764 5765 5767 5769 5772 5773 5773 5773 5774 5775 5775 5776 5776 5776 5776 5776 5777 5778 5780 5782 5783 5784 5785 5785 5786 5785 5784 5783 5782 5782 5782 5781 5781 5779 5779 5779 5778 5778 5777 5776 5776 5775 5774 5773 5772 5770 5768 5767 5765 5763 5761 5760 5758 5757 5756 5754 5753 5751 5749 5746 5743 5740 5737 5734 5731 5728 5726 5723 5719 5715 5710 5706
5733 5736 5739 5741 5744 5745 5747 5749 5752 5754 5757 5758 5760 5760 5762 5762 5764 5767 5769 5770 5770 5771 5772 5773 5775 5776 5776 5774 5774 5775 5775 5777 5778 5780 5781 5782 5784 5785 5786 5785 5783 5781 5780 5780 5780 5780 5780 5779 5778 5777 5776 5776 5775 5774 5773 5772 5771 5770 5769 5767 5765 5764 5762 5761 5759 5758 5756 5755 5754 5752 5750 5748 5745 5742 5739 5736 5734 5731 5729 5726 5723 5719 5715 5710 5706 5702
5729 5733 5735 5737 5740 5742 5744 5746 5749 5752 5754 5755 5756 5757 5759 5760 5762 5764 5766 5767 5767 5768 5770 5772 5773 5774 5774 5773 5773 5773 5774 5775 5776 5777 5779 5780 5782 5784 5785 5784 5783 5781 5779 5779 5779 5780 5780 5779 5778 5777 5775 5774 5773 5772 5771 5770 5769 5768 5766 5764 5763 5761 5759 5758 5756 5755 5754 5752 5751 5749 5747 5744 5741 5739 5736 5734 5732 5729 5726 5722 5718 5714 5710 5705 5701 5697
5726 5729 5731 5733 5737 5740 5741 5743 5746 5749 5751 5752 5753 5754 5756 5758 5760 5761 5763 5764 5765 5766 5767 5770 5771 5772 5772 5772 5772 5772 5772 5773 5773 5774 5776 5777 5779 5782 5783 5783 5782 5781 5780 5779 5778 5779 5779 5779 5777 5776 5774 5773 5772 5771 5769 5768 5767 5766 5764 5762 5760 5758 5756 5755 5753 5752 5751 5749 5748 5746 5743 5741 5739 5736 5734 5732 5729 5726 5722 5718 5714 5710 5706 5702 5697 5693
5722 5724 5726 5729 5733 5736 5738 5740 5742 5745 5747 5749 5750 5751 5754 5757 5758 5760 5762 5761 5761 5763 5764 5766 5768 5769 5770 5770 5770 5771 5771 5771 5771 5772 5773 5775 5777 5780 5781 5782 5781 5780 5779 5779 5778 5778 5778 5778 5776 5775 5773 5772 5771 5770 5768 5767 5765 5764 5762 5760 5758 5756 5754 5752 5751 5749 5748 5747 5745 5743 5741 5739 5737 5734 5731 5728 5725 5722 5718 5714 5710 5707 5702 5698 5693 5689
5717 5720 5721 5724 5728 5732 5735 5736 5738 5741 5744 5746 5748 5750 5752 5754 5756 5757 5759 5758 5758 5760 5761 5762 5763 5766 5767 5767 5767 5768 5768 5769 5769 5770 5771 5773 5775 5777 5778 5779 5779 5778 5777 5777 5777 5776 5776 5776 5775 5774 5773 5771 5770 5768 5767 5765 5764 5762 5760 5758 5756 5754 5753 5751 5749 5748 5746 5745 5743 5741 5739 5737 5734 5731 5728 5725 5722 5718 5714 5711 5707 5703 5699 5694 5689 5685
5712 5715 5717 5719 5723 5727 5730 5732 5734 5738 5741 5743 5746 5748 5749 5751 5753 5754 5755 5756 5756 5757 5759 5759 5760 5761 5763 5764 5765 5765 5766 5766 5766 5767 5769 5771 5772 5774 5775 5775 5775 5775 5775 5775 5775 5774 5774 5774 5773 5772 5771 5770 5768 5767 5765 5764 5762 5760 5758 5756 5754 5752 5751 5750 5748 5747 5745 5743 5741 5738 5736 5734 5731 5728 5726 5722 5719 5715 5711 5707 5703 5699 5695 5691 5686 5682
5707 5711 5712 5715 5719 5722 5725 5727 5730 5733 5736 5740 5743 5745 5746 5748 5750 5751 5753 5754 5754 5755 5757 5757 5757 5758 5759 5761 5762 5763 5763 5763 5764 5765 5767 5768 5769 5770 5771 5771 5771 5772 5772 5772 5772 5772 5772 5771 5770 5769 5768 5767 5766 5764 5763 5761 5759 5758 5755 5754 5752 5750 5749 5748 5746 5744 5742 5739 5737 5735 5733 5730 5728 5726 5723 5719 5716 5712 5709 5705 5700 5696 5692 5687 5683 5679
5701 5705 5707 5710 5714 5717 5720 5723 5725 5727 5731 5736 5739 5742 5743 5745 5747 5748 5750 5751 5752 5753 5754 5755 5755 5755 5756 5758 5758 5759 5760 5761 5762 5763 5764 5765 5766 5767 5767 5768 5768 5768 5768 5769 5769 5770 5769 5768 5767 5766 5765 5764 5763 5761 5759 5758 5756 5754 5752 5751 5749 5748 5746 5744 5742 5740 5738 5736 5734 5732 5730 5728 5725 5723 5720 5716 5713 5709 5706 5702 5697 5693 5688 5684 5680 5675
5694 5698 5702 5706 5709 5712 5715 5718 5720 5722 5727 5732 5736 5739 5741 5743 5744 5745 5746 5747 5750 5751 5751 5752 5752 5752 5752 5753 5754 5756 5758 5759 5760 5761 5762 5763 5764 5764 5764 5764 5765 5765 5765 5766 5766 5766 5766 5765 5764 5763 5762 5761 5759 5758 5756 5755 5753 5751 5750 5748 5747 5745 5742 5740 5738 5736 5735 5733 5731 5729 5727 5725 5722 5720 5717 5713 5710 5706 5702 5698 5694 5690 5685 5681 5677 5672
5688 5693 5698 5702 5704 5706 5710 5712 5714 5718 5722 5727 5731 5735 5738 5739 5740 5740 5742 5744 5746 5747 5748 5749 5749 5748 5749 5750 5751 5753 5754 5756 5757 5759 5760 5761 5761 5761 5762 5762 5762 5763 5763 5763 5764 5763 5763 5761 5761 5760 5759 5757 5756 5755 5753 5752 5750 5749 5747 5745 5743 5742 5740 5738 5736 5734 5732 5731 5729 5727 5725 5722 5720 5717 5713 5710 5706 5702 5698 5694 5691 5687 5683 5678 5674 5669
5683 5687 5692 5696 5699 5701 5704 5707 5709 5713 5718 5723 5727 5731 5734 5734 5734 5736 5739 5740 5742 5743 5744 5745 5746 5746 5746 5748 5749 5749 5750 5752 5754 5756 5757 5758 5758 5759 5759 5760 5760 5761 5761 5761 5761 5760 5759 5758 5758 5757 5756 5754 5753 5752 5750 5749 5748 5746 5745 5743 5741 5739 5737 5735 5733 5732 5730 5728 5726 5724 5722 5719 5717 5713 5710 5706 5703 5699 5695 5691 5688 5684 5679 5674 5669 5664
5677 5682 5686 5690 5693 5696 5699 5702 5705 5708 5713 5718 5722 5725 5727 5728 5730 5732 5735 5736 5737 5739 5740 5742 5742 5743 5744 5745 5746 5746 5746 5748 5750 5752 5754 5755 5756 5757 5757 5758 5759 5759 5759 5759 5758 5757 5757 5756 5755 5754 5753 5752 5751 5749 5748 5747 5745 5743 5742 5740 5738 5736 5734 5732 5731 5729 5728 5726 5724 5722 5719 5716 5713 5710 5707 5703 5700 5696 5692 5688 5685 5680 5676 5671 5666 5661
5672 5677 5680 5683 5687 5691 5695 5698 5701 5705 5709 5713 5716 5719 5722 5724 5726 5728 5730 5731 5732 5734 5736 5737 5738 5739 5740 5742 5743 5743 5744 5745 5746 5748 5750 5752 5753 5754 5755 5756 5756 5757 5757 5756 5756 5755 5755 5754 5753 5752 5750 5749 5748 5747 5746 5744 5742 5741 5739 5737 5735 5733 5731 5730 5728 5727 5725 5723 5721 5718 5716 5713 5710 5707 5703 5700 5697 5693 5689 5685 5681 5677 5672 5668 5663 5658
5668 5672 5675 5677 5681 5685 5690 5694 5697 5700 5704 5708 5711 5714 5717 5719 5721 5724 5725 5726 5727 5729 5731 5733 5735 5735 5736 5738 5739 5740 5741 5742 5743 5744 5746 5749 5751 5752 5753 5754 5754 5754 5754 5754 5753 5753 5753 5752 5751 5749 5748 5747 5746 5744 5743 5741 5740 5738 5737 5735 5734 5731 5729 5728 5726 5724 5722 5720 5718 5715 5713 5710 5707 5703 5700 5697 5694 5690 5686 5682 5678 5673 5669 5664 5659 5654
5663 5666 5670 5673 5676 5679 5684 5688 5692 5695 5699 5703 5706 5709 5712 5715 5717 5719 5720 5721 5722 5724 5726 5728 5730 5732 5733 5735 5736 5737 5738 5740 5742 5742 5743 5745 5748 5749 5750 5751 5751 5751 5751 5751 5751 5751 5750 5749 5748 5747 5746 5745 5743 5742 5740 5739 5737 5736 5735 5733 5731 5729 5727 5726 5724 5722 5720 5718 5715 5713 5710 5707 5703 5700 5697 5693 5690 5686 5682 5678 5674 5670 5665 5661 5656 5650
5658 5662 5665 5668 5671 5674 5678 5682 5686 5690 5693 5697 5701 5704 5706 5710 5712 5714 5715 5717 5718 5720 5721 5723 5725 5728 5730 5732 5733 5734 5735 5737 5738 5739 5740 5741 5744 5746 5746 5747 5747 5747 5747 5747 5747 5747 5747 5746 5745 5744 5743 5742 5741 5740 5738 5737 5735 5733 5732 5730 5728 5726 5725 5723 5721 5719 5717 5715 5712 5710 5707 5704 5700 5697 5693 5689 5686 5682 5678 5674 5669 5665 5661 5657 5652 5646
5654 5657 5660 5662 5666 5670 5673 5675 5680 5685 5689 5691 5695 5699 5702 5704 5707 5709 5710 5712 5713 5715 5716 5717 5720 5723 5727 5729 5730 5731 5732 5732 5734 5737 5738 5738 5739 5742 5743 5743 5743 5743 5743 5744 5744 5744 5743 5743 5742 5741 5740 5739 5738 5737 5735 5734 5732 5731 5729 5728 5726 5724 5722 5720 5718 5716 5714 5712 5709 5707 5704 5700 5697 5693 5689 5685 5682 5678 5674 5670 5665 5660 5655 5651 5646 5641
5648 5652 5654 5658 5662 5665 5667 5670 5674 5680 5684 5686 5688 5693 5696 5698 5700 5703 5705 5707 5709 5710 5710 5712 5714 5718 5723 5725 5726 5728 5728 5728 5731 5735 5736 5735 5736 5737 5739 5739 5739 5739 5739 5739 5740 5740 5740 5739 5738 5737 5736 5735 5734 5733 5732 5731 5729 5728 5726 5725 5723 5721 5719 5717 5715 5713 5711 5709 5706 5703 5700 5697 5693 5690 5686 5682 5678 5674 5670 5665 5661 5655 5650 5644 5639 5634
5643 5646 5649 5652 5656 5660 5662 5665 5668 5673 5677 5679 5681 5685 5689 5691 5694 5697 5699 5701 5704 5705 5705 5706 5709 5714 5719 5721 5721 5723 5724 5724 5726 5730 5732 5732 5731 5732 5733 5734 5734 5734 5734 5735 5736 5736 5735 5735 5734 5733 5732 5732 5731 5730 5729 5727 5726 5724 5723 5721 5720 5718 5716 5714 5712 5710 5708 5705 5703 5700 5697 5693 5690 5687 5683 5679 5675 5671 5667 5661 5656 5650 5644 5638 5632 5628